Aérodrome d'Andernos

LFCD · Nouvelle-Aquitaine, Frankrijk

3 oktober 2022

Tijd Code Weer Temp. Zicht Plafond Wind METAR/SPECI
08:30
L
11 °C 500 m - 360° 360° 2 kt METAR LFBC 030630Z AUTO 36002KT 0700 0500 R24/1400D FG VV/// 11/11 Q1024 BECMG CAVOK
08:00
L
11 °C 10 km+ - 330° 330° 1 kt METAR LFBC 030600Z AUTO 33001KT 9999 R24/1100U VV/// 11/11 Q1024 TEMPO 0500 FG BECMG NSC
07:30
I
11 °C 3,5 km - Var 000° 0 kt METAR LFBC 030530Z AUTO 00000KT 9999 3500 NSC 11/11 Q1024 TEMPO 0500 FG
07:00
L
12 °C 1 km - 010° 010° 3 kt METAR LFBC 030500Z AUTO 01003KT 5000 1000 R24/P2000 BR NSC 12/11 Q1024 BECMG 0500 FG
06:30
I
12 °C 2,6 km - 360° 360° 3 kt METAR LFBC 030430Z AUTO 36003KT 320V020 9999 2600 FEW038 12/11 Q1024 BECMG 0500 FG
06:00
V
13 °C 10 km+ 3.700 ft 010° 010° 2 kt METAR LFBC 030400Z AUTO 01002KT 9999 FEW001 OVC037 13/13 Q1024 BECMG 0500 FG
05:30
L
12 °C 1,2 km 100 ft 200° 200° 1 kt METAR LFBC 030330Z AUTO 20001KT 1900 1200 R24/1300D BR BKN001 BKN006 BKN038 12/11 Q1025 BECMG 0500 FG NSC
05:00
L
12 °C 1 km - Var 000° 0 kt METAR LFBC 030300Z AUTO 00000KT 4100 1000 R24/1200D BR FEW003 12/12 Q1025 BECMG 0500 FG
04:30
L
12 °C 700 m - 350° 350° 3 kt METAR LFBC 030230Z AUTO 35003KT 1600 0700 R24/P2000 BCFG VV/// 12/12 Q1025 BECMG 0500 FG NSC
04:06
L
0 °C 0 m - Var 000° 0 kt METAR LFBC 030206Z AUTO /////KT //// // ////// ///// Q////
03:30
L
14 °C 400 m - 040° 040° 3 kt METAR LFBC 030130Z AUTO 04003KT 0750 0400 R24/0500D FG VV/// 14/13 Q1025 BECMG 0500 FG NSC
03:00
L
14 °C 400 m - 340° 340° 1 kt METAR LFBC 030100Z AUTO 34001KT 0650 0400 R24/1400U FG VV/// 14/13 Q1025 BECMG 0500 FG NSC
02:30
L
13 °C 500 m - Var 000° 0 kt METAR LFBC 030030Z AUTO 00000KT 0600 0500 R24/0800U FG VV/// 13/13 Q1025 BECMG NSC
02:00
L
13 °C 600 m - Var 000° 0 kt METAR LFBC 030000Z AUTO 00000KT 0700 0600 R24/1100U FG VV/// 13/13 Q1025 BECMG 0500 FG NSC
01:30
L
13 °C 600 m - Var 000° 0 kt METAR LFBC 022330Z AUTO 00000KT 0650 0600 R24/0750D FG VV/// 13/13 Q1026 BECMG 0500 FG NSC
01:00
L
13 °C 550 m - Var 000° 0 kt METAR LFBC 022300Z AUTO 00000KT 1100 0550 R24/1400U BCFG VV/// 13/13 Q1026 BECMG 0500 FG NSC
00:30
L
13 °C 800 m - 340° 340° 2 kt METAR LFBC 022230Z AUTO 34002KT 0800 R24/2000U FG VV/// 13/12 Q1026 BECMG 0500 FG NSC
00:00
L
13 °C 500 m - Var 000° 0 kt METAR LFBC 022200Z AUTO 00000KT 0600 0500 R24/0600U FG VV/// 13/13 Q1026 BECMG NSC

2 oktober 2022

Tijd Code Weer Temp. Zicht Plafond Wind METAR/SPECI
23:30
L
14 °C 800 m 400 ft 010° 010° 1 kt METAR LFBC 022130Z AUTO 01001KT 3600 0800 R24/1100U BCFG BKN004 BKN100 14/13 Q1026 BECMG 0500 FG NSC
23:00
L
13 °C 900 m 300 ft Var 000° 0 kt METAR LFBC 022100Z AUTO 00000KT 0900 R24/1200U FG OVC003 13/13 Q1026 BECMG 0500 FG NSC
22:30
L
14 °C 550 m 400 ft Var 000° 0 kt METAR LFBC 022030Z AUTO 00000KT 0800 0550 R24/1600U FG BKN004 14/13 Q1026 BECMG 0500 FG NSC
22:00
L
14 °C 650 m - Var 000° 0 kt METAR LFBC 022000Z AUTO 00000KT 0800 0650 R24/1300U FG FEW006 14/13 Q1026 TEMPO 0500 FG VV///
21:30
L
15 °C 700 m 700 ft 090° 090° 2 kt METAR LFBC 021930Z AUTO 09002KT 5000 0700 R24/P2000 BCFG BKN007 15/14 Q1026 TEMPO 0500 FG VV///
21:00
V
16 °C 10 km+ - Var Var 1 kt METAR LFBC 021900Z AUTO VRB01KT CAVOK 16/15 Q1025 TEMPO 0500 FG VV///
20:30
V
17 °C 10 km+ - 340° 340° 2 kt METAR LFBC 021830Z AUTO 34002KT CAVOK 17/16 Q1026 TEMPO 0500 FG VV///
20:00
V
18 °C 10 km+ - 340° 340° 2 kt METAR LFBC 021800Z AUTO 34002KT 9999 FEW009 18/16 Q1026 NOSIG
19:30
V
18 °C 10 km+ - 300° 300° 4 kt METAR LFBC 021730Z AUTO 30004KT 9999 FEW009 18/16 Q1025 NOSIG
19:00
V
19 °C 10 km+ 4.400 ft 280° 280° 5 kt METAR LFBC 021700Z AUTO 28005KT 250V310 9999 BKN044 19/16 Q1025 NOSIG
18:30
V
20 °C 10 km+ 4.500 ft 280° 280° 5 kt METAR LFBC 021630Z AUTO 28005KT 250V320 9999 BKN045 20/16 Q1025 NOSIG
18:00
V
20 °C 10 km+ 4.500 ft 290° 290° 6 kt METAR LFBC 021600Z AUTO 29006KT 9999 OVC045 20/16 Q1026 NOSIG
17:30
V
20 °C 10 km+ 4.400 ft 300° 300° 7 kt METAR LFBC 021530Z AUTO 30007KT 9999 FEW020 BKN044 20/16 Q1025 NOSIG
17:00
M
21 °C 10 km+ 2.700 ft 210° 210° 5 kt METAR LFBC 021500Z AUTO 21005KT 180V260 9999 BKN027 BKN032 OVC042 21/16 Q1025 NOSIG
16:30
V
22 °C 10 km+ 4.100 ft 260° 260° 5 kt METAR LFBC 021430Z AUTO 26005KT 200V320 9999 FEW028 OVC041 22/16 Q1026 NOSIG
16:00
V
21 °C 10 km+ 4.000 ft 300° 300° 5 kt METAR LFBC 021400Z AUTO 30005KT 240V350 9999 OVC040 21/15 Q1026 NOSIG
15:30
V
22 °C 10 km+ 3.900 ft 290° 290° 6 kt METAR LFBC 021330Z AUTO 29006KT 260V320 9999 FEW028 OVC039 22/15 Q1026 NOSIG
15:00
V
22 °C 10 km+ 3.800 ft 280° 280° 6 kt METAR LFBC 021300Z AUTO 28006KT 180V330 9999 FEW026 BKN038 22/16 Q1026 NOSIG
14:30
V
22 °C 10 km+ 4.000 ft 220° 220° 5 kt METAR LFBC 021230Z AUTO 22005KT 180V250 9999 FEW024 BKN040 22/16 Q1026 NOSIG
14:00
V
21 °C 10 km+ 3.900 ft 210° 210° 6 kt METAR LFBC 021200Z AUTO 21006KT 160V250 9999 FEW024 SCT031 BKN039 21/16 Q1027 NOSIG
13:30
V
20 °C 10 km+ 3.700 ft 210° 210° 5 kt METAR LFBC 021130Z AUTO 21005KT 9999 FEW014 OVC037 20/16 Q1027 NOSIG
13:00
M
20 °C 10 km+ 2.500 ft 210° 210° 4 kt METAR LFBC 021100Z AUTO 21004KT 160V250 9999 FEW011 SCT020 BKN025 20/17 Q1027 NOSIG
12:30
M
20 °C 10 km+ 2.800 ft 180° 180° 5 kt METAR LFBC 021030Z AUTO 18005KT 160V230 9999 SCT008 BKN028 BKN035 20/17 Q1027 NOSIG
12:00
V
19 °C 10 km+ 3.500 ft 170° 170° 6 kt METAR LFBC 021000Z AUTO 17006KT 9999 FEW005 BKN035 19/18 Q1027 NOSIG
11:30
L
17 °C 7 km 400 ft 190° 190° 5 kt METAR LFBC 020930Z AUTO 19005KT 7000 BKN004 BKN022 OVC027 17/17 Q1027 BECMG SCT025
11:00
L
17 °C 10 km+ 300 ft 200° 200° 6 kt METAR LFBC 020900Z AUTO 20006KT 9999 OVC003 17/17 Q1027 BECMG SCT025
10:30
L
16 °C 600 m - 190° 190° 5 kt METAR LFBC 020830Z AUTO 19005KT 0750 0600 R24/0800U FG VV/// 16/16 Q1027 BECMG 8000 NSW SCT010 OVC025
10:00
L
15 °C 6 km - 170° 170° 5 kt METAR LFBC 020800Z AUTO 17005KT 6000 VV/// 15/15 Q1027 BECMG SCT010 OVC025
09:30
L
15 °C 550 m - 170° 170° 4 kt METAR LFBC 020730Z AUTO 17004KT 0600 0550 R24/1100U FG VV/// 15/15 Q1027 BECMG 8000 NSW SCT010 OVC025
09:00
L
16 °C 450 m - 180° 180° 4 kt METAR LFBC 020700Z AUTO 18004KT 160V220 0450 R24/0500D FG VV/// 16/15 Q1026 BECMG 8000 NSW SCT010 OVC025
08:30
L
16 °C 900 m 300 ft 200° 200° 4 kt METAR LFBC 020630Z AUTO 20004KT 4900 0900 R24/1000U BCFG BKN003 OVC007 16/16 Q1026 BECMG 8000 NSW SCT010 OVC025
08:00
L
15 °C 600 m - Var 000° 0 kt METAR LFBC 020600Z AUTO 00000KT 0750 0600 R24/0700D FG FEW005 SCT031 15/14 Q1026 TEMPO 2000 BR VV///
07:30
I
16 °C 3,1 km 3.100 ft 180° 180° 4 kt METAR LFBC 020530Z AUTO 18004KT 8000 3100 BKN031 16/16 Q1026 TEMPO 2000 BR VV///
07:00
V
16 °C 10 km+ 3.000 ft 170° 170° 6 kt METAR LFBC 020500Z AUTO 17006KT 9999 OVC030 16/16 Q1026 TEMPO 0500 FG VV///
06:30
L
16 °C 9 km 400 ft 170° 170° 4 kt METAR LFBC 020430Z AUTO 17004KT 9000 BKN004 BKN017 OVC026 16/16 Q1026 TEMPO 0500 FG VV///
06:00
I
16 °C 3,3 km 1.200 ft 160° 160° 3 kt METAR LFBC 020400Z AUTO 16003KT 3300 BR SCT004 BKN012 BKN018 16/16 Q1026 TEMPO 0500 FG VV///
05:30
V
16 °C 9 km 3.200 ft Var 000° 0 kt METAR LFBC 020330Z AUTO 00000KT 9000 FEW005 OVC032 16/16 Q1026 TEMPO 0500 FG VV///
05:00
V
17 °C 10 km+ 3.000 ft 160° 160° 4 kt METAR LFBC 020300Z AUTO 16004KT 9999 FEW006 OVC030 17/16 Q1026 TEMPO 0500 FG VV///
04:30
M
17 °C 10 km+ 2.900 ft 210° 210° 3 kt METAR LFBC 020230Z AUTO 21003KT 9999 OVC029 17/17 Q1026 TEMPO 0500 FG VV///
04:00
M
17 °C 10 km+ 2.800 ft 200° 200° 3 kt METAR LFBC 020200Z AUTO 20003KT 180V240 9999 OVC028 17/17 Q1026 TEMPO 0600 FG VV///
03:30
M
17 °C 9 km 2.900 ft 180° 180° 3 kt METAR LFBC 020130Z AUTO 18003KT 9000 FEW004 OVC029 17/16 Q1026 TEMPO 0600 FG VV///
03:00
V
16 °C 10 km+ 3.000 ft 170° 170° 4 kt METAR LFBC 020100Z AUTO 17004KT 9999 SCT004 SCT011 OVC030 16/16 Q1026 TEMPO 0600 FG VV///
02:30
L
16 °C 9 km 400 ft 190° 190° 3 kt METAR LFBC 020030Z AUTO 19003KT 160V230 9000 OVC004 16/16 Q1026 TEMPO 0600 FG VV///
02:00
L
16 °C 10 km+ 400 ft 180° 180° 5 kt METAR LFBC 020000Z AUTO 18005KT 9999 BKN004 OVC030 16/16 Q1026 TEMPO 3000 BR BECMG NSC
01:30
V
16 °C 9 km - 200° 200° 3 kt METAR LFBC 012330Z AUTO 20003KT 9000 SCT005 16/16 Q1026 TEMPO 3000 BR
01:00
L
15 °C 600 m - 200° 200° 3 kt METAR LFBC 012300Z AUTO 20003KT 1500 0600 R24/0750D BCFG NSC 15/15 Q1026 TEMPO 3000 BR
00:30
L
16 °C 1,3 km - 230° 230° 3 kt METAR LFBC 012230Z AUTO 23003KT 5000 1300 R24/1400D BR NSC 16/15 Q1026 NOSIG
00:00
V
16 °C 10 km+ - Var Var 2 kt METAR LFBC 012200Z AUTO VRB02KT CAVOK 16/16 Q1026 TEMPO 3000 BR

1 oktober 2022

Tijd Code Weer Temp. Zicht Plafond Wind METAR/SPECI
23:30
I
17 °C 1,9 km - 240° 240° 3 kt METAR LFBC 012130Z AUTO 24003KT 8000 1900 NSC 17/16 Q1026 TEMPO 3000 BR
23:00
V
17 °C 10 km+ - 240° 240° 4 kt METAR LFBC 012100Z AUTO 24004KT 9999 FEW009 17/16 Q1026 TEMPO 3000 BR
22:30
V
16 °C 10 km+ - 220° 220° 4 kt METAR LFBC 012030Z AUTO 22004KT 9999 SCT012 16/16 Q1026 TEMPO 2500 BR BECMG BKN010 BKN015 OVC025
22:00
V
16 °C 10 km+ - 220° 220° 4 kt METAR LFBC 012000Z AUTO 22004KT CAVOK 16/16 Q1026 TEMPO 2500 BR BECMG BKN010 BKN015 OVC025
21:30
V
17 °C 10 km+ - 230° 230° 4 kt METAR LFBC 011930Z AUTO 23004KT CAVOK 17/16 Q1026 TEMPO 2500 BR BECMG BKN010 BKN015 OVC025
21:00
V
17 °C 10 km+ - 230° 230° 4 kt METAR LFBC 011900Z AUTO 23004KT CAVOK 17/16 Q1025 TEMPO 2500 BR BECMG BKN010 BKN015 OVC025
20:30
V
18 °C 10 km+ 6.800 ft 240° 240° 4 kt METAR LFBC 011830Z AUTO 24004KT 210V280 9999 SCT010 BKN068 18/17 Q1025 TEMPO 2500 BR BECMG BKN010 BKN015 OVC025
20:00
M
19 °C 10 km+ 1.100 ft 260° 260° 6 kt METAR LFBC 011800Z AUTO 26006KT 9999 BKN011 OVC066 19/17 Q1025 TEMPO 2500 BR
19:30
M
19 °C 10 km+ 1.000 ft 250° 250° 7 kt METAR LFBC 011730Z AUTO 25007KT 210V280 9999 OVC010 19/17 Q1025 TEMPO 2500 BR
19:00
M
19 °C 10 km+ 1.100 ft 250° 250° 8 kt METAR LFBC 011700Z AUTO 25008KT 220V290 9999 BKN011 OVC017 19/17 Q1025 TEMPO 2500 BR
18:30
M
19 °C 10 km+ 1.000 ft 250° 250° 8 kt METAR LFBC 011630Z AUTO 25008KT 210V290 9999 OVC010 19/18 Q1024 TEMPO 2500 BR
18:00
M
19 °C 10 km+ 1.000 ft 250° 250° 8 kt METAR LFBC 011600Z AUTO 25008KT 220V280 9999 OVC010 19/18 Q1024 BECMG DZ
17:30
M
19 °C 10 km+ 1.100 ft 240° 240° 8 kt METAR LFBC 011530Z AUTO 24008KT 220V280 9999 OVC011 19/18 Q1024 BECMG DZ
17:00
M
19 °C 10 km+ 1.200 ft 240° 240° 10 kt METAR LFBC 011500Z AUTO 24010KT 210V270 9999 OVC012 19/18 Q1024 BECMG DZ
16:30
M
18 °C 5 km 1.000 ft 250° 250° 11 kt METAR LFBC 011430Z AUTO 25011KT 220V280 5000 DZ BR BKN010 BKN015 OVC027 18/17 Q1024 BECMG 26015G25KT NSW
16:00
I
19 °C 2,6 km 700 ft 250° 250° 10 kt METAR LFBC 011400Z AUTO 25010KT 210V280 2600 DZ BR BKN007 OVC017 19/18 Q1024 BECMG 26015G25KT 9999 NSW BKN010 OVC025
15:30
I
19 °C 4 km 700 ft 240° 240° 11 kt METAR LFBC 011330Z AUTO 24011KT 4000 DZ BR OVC007 19/18 Q1024 BECMG 26015G25KT 9999 NSW BKN010 OVC025
15:00
I
19 °C 3,8 km 800 ft 240° 240° 11 kt METAR LFBC 011300Z AUTO 24011KT 210V270 3800 -RA BR OVC008 19/18 Q1023 BECMG 26015G25KT 9999 NSW BKN010 OVC025
14:30
M
19 °C 10 km+ 1.000 ft 240° 240° 14 kt METAR LFBC 011230Z AUTO 24014KT 210V270 9999 BKN010 OVC016 19/18 Q1023 BECMG 26015G25KT
14:00
M
20 °C 10 km+ 1.000 ft 250° 250° 14 kt METAR LFBC 011200Z AUTO 25014KT 210V270 9999 BKN010 BKN044 OVC064 20/18 Q1023 BECMG 26015G25KT
13:30
I
19 °C 10 km+ 900 ft 240° 240° 13 - 24 kt METAR LFBC 011130Z AUTO 24013G24KT 9999 OVC009 19/18 Q1023 BECMG BKN010 OVC025
13:00
I
19 °C 10 km+ 800 ft 250° 250° 11 - 22 kt METAR LFBC 011100Z AUTO 25011G22KT 220V290 9999 BKN008 OVC013 19/17 Q1023 BECMG BKN010 OVC025
12:30
I
18 °C 5 km 700 ft 240° 240° 13 kt METAR LFBC 011030Z AUTO 24013KT 210V280 5000 -RA BR OVC007 18/17 Q1023 BECMG 26015G25KT BKN010 OVC025
12:00
I
18 °C 2,3 km 700 ft 250° 250° 13 kt METAR LFBC 011000Z AUTO 25013KT 210V280 2300 -RA BR OVC007 18/17 Q1022 BECMG 26015G25KT 9999 NSW BKN010 OVC025
11:30
I
18 °C 4,1 km 1.000 ft 250° 250° 11 kt METAR LFBC 010930Z AUTO 25011KT 220V280 9999 4100 -RADZ OVC010 18/17 Q1022 BECMG 26015G25KT
11:00
M
19 °C 10 km+ 1.100 ft 240° 240° 10 kt METAR LFBC 010900Z AUTO 24010KT 210V280 9999 BKN011 OVC020 19/17 Q1022 BECMG 26015G25KT
10:30
M
19 °C 10 km+ 1.100 ft 250° 250° 10 kt METAR LFBC 010830Z AUTO 25010KT 210V270 9999 BKN011 BKN027 OVC032 19/17 Q1021 BECMG 26015G25KT
10:00
M
18 °C 10 km+ 1.000 ft 250° 250° 11 kt METAR LFBC 010800Z AUTO 25011KT 200V270 9999 BKN010 OVC026 18/17 Q1021 TEMPO 4800 RA
09:30
M
17 °C 10 km+ 1.100 ft 250° 250° 11 kt METAR LFBC 010730Z AUTO 25011KT 220V280 9999 OVC011 17/16 Q1021 TEMPO 4800 RA BKN008 OVC020
09:00
I
17 °C 10 km+ 900 ft 240° 240° 12 - 22 kt METAR LFBC 010700Z AUTO 24012G22KT 210V270 9999 OVC009 17/16 Q1020 TEMPO 4800 RA
08:30
I
17 °C 5 km 500 ft 240° 240° 13 kt METAR LFBC 010630Z AUTO 24013KT 220V280 5000 -DZ BR OVC005 17/16 Q1020 TEMPO RA
08:00
I
16 °C 4,6 km 600 ft 240° 240° 12 kt METAR LFBC 010600Z AUTO 24012KT 4600 DZ BR OVC006 16/16 Q1020 TEMPO RA
07:30
I
16 °C 3,9 km 600 ft 250° 250° 13 kt METAR LFBC 010530Z AUTO 25013KT 3900 DZ BR BKN006 OVC013 16/16 Q1019 TEMPO RA
07:00
M
17 °C 6 km 1.400 ft 240° 240° 14 kt METAR LFBC 010500Z AUTO 24014KT 210V270 6000 DZ OVC014 17/15 Q1019 TEMPO 4800 RA BKN008 OVC020
Oudere gegevens

Met cookies volgen wij en derde partijen jouw internetgedrag binnen onze site. Als je verdergaat gaan we ervan uit dat je dit goedvindt. Meer info